Home   Weather   Portage la Prairie   Past weeks

Flag for Canada Past Weather in Portage la Prairie, Manitoba, Canada — Yesterday and Last 2 Weeks

Now
34 °F

Overcast.


Feels Like: 28 °F
Forecast: 22 / 32 °F
Wind: 7 mph from Northwest

Location: Portage Southport A

Current Time: Feb 22, 2017 at 11:42:02 am

Latest Report: Feb 22, 2017 at 11:00 am


Visibility: 15 mi

Pressure: 29.88 "Hg

Humidity: 75%

Dew Point: 27 °F

Location of Portage la PrairieLocation

Past Weather in Portage la Prairie — Graph

°F

Portage la Prairie Temperature Yesterday

Maximum temperature yesterday: 37 °F (at 12:00 pm)
Minimum temperature yesterday: 32 °F (at 6:00 am)
Average temperature yesterday: 34 °F

High & Low Weather Summary for the Past Weeks

 TemperatureHumidityPressure
High48 °F (Feb 17, 3:00 pm)100% (Feb 20, 7:00 am)30.23 "Hg (Feb 20, 7:00 am)
Low-13 °F (Feb 8, 6:00 am)50% (Feb 14, 10:00 am)29.25 "Hg (Feb 17, 2:00 pm)
Average22 °F77%29.81 "Hg
* Reported Feb 7 10:00 am — Feb 22 10:00 am, Portage la Prairie, Weather by CustomWeather, © 2017

Note: Actual official high and low records may vary slightly from our data, if they occured in-between our weather recording intervals... More about our weather records

Advertising

Portage la Prairie Weather History for the Previous 24 Hours

Scroll right to see more
 ConditionsComfort  
Time TempWeatherWind HumidityBarometerVisibility
10:00 am
Wed, Feb 22
34 °FOvercast.10 mph81%29.88 "Hg15 mi
9:00 am32 °FOvercast.6 mph93%29.86 "Hg15 mi
8:00 am32 °FOvercast.3 mph87%29.85 "Hg15 mi
7:00 am32 °FOvercast.5 mph87%29.86 "Hg15 mi
6:00 am32 °FOvercast.5 mph93%29.83 "Hg15 mi
10:00 pm
Tue, Feb 21
34 °FSnow flurries. Overcast.No wind93%29.75 "Hg8 mi
9:00 pm32 °FSnow flurries. Overcast.No wind100%29.75 "Hg8 mi
8:41 pm34 °FSnow flurries. Overcast.2 mph93%29.75 "Hg8 mi
8:00 pm34 °FFog.2 mph93%29.75 "Hg6 mi
7:00 pm34 °FFog.No wind93%29.75 "Hg6 mi
6:00 pm34 °FFog.3 mph93%29.73 "Hg6 mi
5:00 pm34 °FFog.5 mph93%29.73 "Hg6 mi
4:00 pm36 °FFog.6 mph93%29.73 "Hg6 mi
3:00 pm37 °FPartly sunny.2 mph87%29.72 "Hg8 mi
2:00 pm37 °FFog.2 mph87%29.72 "Hg6 mi
1:00 pm37 °FFog.2 mph87%29.72 "Hg4 mi
12:28 pm36 °FFog.No wind93%29.74 "Hg5 mi
12:00 pm37 °FFog.No wind87%29.74 "Hg3 mi
11:19 am36 °FFog.6 mph93%29.74 "Hg3 mi
Weather by CustomWeather, © 2017

See weather overviewHow to use our weather pages